Back to catalog

COSMOS 970 DEB

AliveLEO
NORAD 65004·DEBRIS·🇷🇺 Russia

Launched Dec 21, 1977 from Baikonur Cosmodrome

Loading…

Next Passes (next 24 hours)

TLE

AgingSource: Space-Track

Epoch: Sep 9, 2026, 01:04 UTC

1 65004U 77121DR  26252.04474958  .00000339  00000-0  30963-3 0  9990
2 65004  65.9020  34.4175 0109222  50.3009 310.7631 13.93024685219695

Track COSMOS 970 DEB in real time with AllMySat

Download on the App Store